Tracking 30743 objects as of 21-Jun-2025
HD Live streaming from Space Station
objects crossing your sky now

STARLINK-11148

Track STARLINK-11148 now!
10-day predictions
STARLINK-11148 is classified as:


NORAD ID: 60044
Int'l Code: 2024-112G
Perigee: 366.2 km
Apogee: 367.6 km
Inclination: 53.2 °
Period: 91.7 minutes
Semi major axis: 6737 km
RCS: Unknown
Launch date: June 8, 2024
Source: United States (US)
Launch site: AIR FORCE WESTERN TEST RANGE (AFWTR)
Your satellite tracking list
Your tracking list is empty




NASA's NSSDC Master Catalog

Two Line Element Set (TLE):
1 60044U 24112G   25171.26056129 -.00000551  00000-0  30884-6 0  9992
2 60044  53.1580 119.9429 0001047  79.5807 280.5328 15.69703289 59766
Source of the keplerian elements: AFSPC